Location: D�derode
(51.8092°N, 10.1065°E)
Time: 06:57:42
(UTC+00:00)

Cosmos 1980 - Pass Details

Date: 01 December 2020
Orbit: 841 x 846 km, 71.0° (Epoch: 23 January)

Event Time Altitude Azimuth Distance (km) Brightness Sun altitude
Rises 16:18:58 0° 223° (SW) 3,397 8.2 -9.8°
Reaches altitude 10° 16:21:27 10° 227° (SW) 2,466 7.4 -10.1°
Maximum altitude 16:27:01 58° 306° (NW) 988 4.3 -10.9°
Drops below altitude 10° 16:32:38 10° 26° (NNE) 2,478 5.7 -11.7°
Enters shadow 16:33:27 - 27° (NNE) 2,783 6.0 -11.9°
